SCP
-0 0 0 0 0 -0 -0 -0 -0 -0 -0 -0 -0 -0 -0 -0 -0 -0 -0 -0 0 0 0 0 -0 -0 -0 -0 -0 -0 -0 -0 -0 -0 -0 -0 -0 -0 -0 -0 -0 0 0
-0 -0 -0 -0 -0 -0 -0 -0 -0 -0 -0 -0 -0 -0 -0 -0 -0 -0 -0 -0 -0 -0 -0 0 -0 -0 -0 -0 -0 -0 -0 -0 -0 -0 -0 -0 -0 -0 -0 -0 -0 -0 -0
-0 0 -0 -0 -0 -0 -0 -0 -0 -0 -0 -0 -0 -0 -0 -0 -0 -0 -0 -0 -0 -0 -0 -0 -0 -0 -0 -0 -0 -0 -0 -0 -0 -0 -0 0 0 -0 -0 -0 -0 -0 -0
-0 -0 0 -0 -0 -0 -0 -0 -0 -0 -0 -0 -0 -0 -0 -0 -0 -0 -0 -0 -0 -0 -0 -0 -0 -0 -0 -0 -0 -0 -0 -0 -0 -0 -0 0 0 -0 -0 -0 -0 -0 -0
-0 -0 0 -0 -0 -0 -0 -0 -0 -0 -0 -0 -0 -0 -0 -0 -0 -0 -0 -0 -0 -0 -0 -0 -0 -0 -0 -0 -0 -0 -0 -0 -0 -0 -0 -0 -0 -0 -0 -0 -0 -0 -0
-0 -0 -0 -0 -0 -0 -0 -0 -0 -0 -0 -0 -0 -0 -0 -0 -0 -0 -0 -0 -0 -0 -0 -0 -0 -0 -0 -0 -0 -0 -0 -0 0 0 0 0 -0 -0 -0 -0 -0 -0 0
-0 -0 -0 -0 -0 -0 -0 -0 -0 -0 -0 -0 -0 -0 -0 -0 -0 -0 -0 -0 -0 -0 -0 -0 -0 -0 -0 -0 -0 -0 -0 -0 0 0 0 0 0 -0 0 0 -0 0 0
-0 -0 -0 -0 -0 -0 -0 -0 -0 -0 -0 -0 -0 -0 -0 -0 -0 -0 -0 -0 -0 -0 -0 -0 -0 -0 -0 -0 -0 -0 -0 0 0 0 0 0 0 0 0 0 0 0 0
0 0 0 0 -0 -0 -0 -0 -0 -0 -0 -0 -0 -0 -0 -0 -0 -0 -0 -0 -0 -0 -0 -0 -0 -0 -0 -0 -0 -0 -0 -0 0 0 0 0 0 0 0 0 0 0 0
0 0 0 0 0 0 0 -0 -0 -0 -0 -0 -0 -0 -0 -0 -0 -0 0 0 -0 -0 0 0 0 0 0 -0 -0 -0 0 0 0 0 0 0 0 0 0 0 0 0 0
0 0 0 0 0 0 0 0 0 -0 -0 -0 -0 -0 0 0 0 0 0 0 0 0 0 0 0 0 0 0 0 0 0 0 0 0 0 0 0 0 0 0 0 0 0
0 0 0 0 0 0 0 0 0 0 0 0 0 0 0 0 0 0 0 0 0 0 0 0 0 0 0 0 0 0 0 0 0 0 0 0 0 0 0 0 0 0 0
0 0 0 0 0 0 0 0 0 0 0 0 0 0 0 0 0 0 0 0 0 0 0 0 0 0 0 0 0 0 0 0 0 0 0 0 0 0 0 0 0 0 0
0 0 0 0 0 0 0 0 0 0 0 0 0 0 0 0 0 0 0 0 0 0 0 0 0 0 0 0 0 0 0 0 0 0 0 0 0 0 0 0 0 0 0
0 0 0 0 0 0 0 0 0 0 0 0 0 0 0 0 0 0 0 0 0 0 0 0 0 0 0 0 0 0 0 0 0 0 0 0 0 0 0 0 0 0 0
0 0 0 0 0 0 0 0 0 0 0 0 0 0 0 0 0 0 0 0 0 0 0 0 0 0 0 0 0 0 0 0 0 0 0 0 0 0 0 0 0 0 0
0 0 0 0 0 0 0 0 0 0 0 0 0 0 0 0 0 0 0 0 0 0 0 0 0 0 0 0 0 0 0 0 0 0 0 0 0 0 0 0 0 0 0
0 0 0 0 0 0 0 0 0 0 0 0 0 0 0 0 0 0 0 0 0 0 0 0 0 0 0 0 0 0 0 0 0 0 0 0 0 0 0 0 0 0 0
0 0 0 0 0 0 0 0 0 0 0 0 0 0 0 0 0 0 0 0 0 0 0 0 0 0 0 0 0 0 0 0 0 0 0 0 0 0 0 0 0 0 0
0 0 0 0 0 0 0 0 0 0 0 0 0 0 0 0 0 0 0 0 0 0 0 0 0 0 0 0 0 0 0 0 0 0 0 0 0 0 0 0 0 0 0
0 0 0 0 0 0 0 0 0 0 0 0 0 0 0 0 0 0 0 0 0 0 0 0 0 0 0 0 0 0 0 0 0 0 0 0 0 0 0 0 0 0 0
0 0 0 0 0 0 0 0 0 0 0 0 0 0 0 0 0 0 0 0 0 0 0 0 0 0 0 0 0 0 0 0 0 0 0 0 0 0 0 0 0 0 0
0 0 0 0 0 0 0 0 0 0 0 0 0 0 0 0 0 0 0 0 0 0 0 0 0 0 0 0 0 0 0 0 0 0 0 0 0 0 0 0 0 0 0
0 0 0 0 0 0 0 0 0 0 0 0 0 0 0 0 0 0 0 0 0 0 0 0 0 0 0 0 0 0 0 0 0 0 0 0 0 0 0 0 0 0 0
0 0 0 0 0 0 0 0 0 0 0 0 0 0 0 0 0 0 0 0 0 0 0 0 0 0 0 0 0 0 0 0 0 0 0 0 0 0 0 -0 -0 -0 -0
0 0 0 0 0 0 0 0 0 0 0 0 0 0 0 0 0 0 0 0 0 0 0 0 0 0 0 0 0 0 0 0 0 0 0 0 0 0 0 -0 -0 -0 -0
Wind_Speed_500mb
24 22 23 24 25 24 23 22 20 16 16 17 20 20 24 26 26 28 27 25 23 23 21 20 19 22 23 25 25 25 25 23 22 23 24 22 21 22 24 26 24 24 22
17 29 25 25 24 23 24 22 19 18 16 14 15 18 22 23 25 26 24 22 20 19 19 18 18 19 24 26 27 24 22 22 19 23 18 15 20 22 24 22 22 23 21
23 29 27 27 24 22 21 20 18 17 14 14 12 15 18 20 21 20 23 21 20 19 19 18 16 18 21 26 27 25 22 22 19 20 20 9 13 15 14 15 17 19 20
24 28 26 26 25 23 21 18 17 14 12 12 11 12 17 21 20 23 24 21 19 19 18 17 14 15 18 21 24 21 19 21 18 16 20 17 10 8 9 8 8 9 9
22 29 27 27 26 24 23 20 18 13 10 10 11 9 13 18 22 25 25 22 21 19 19 17 16 16 18 19 21 19 17 17 19 19 13 17 15 14 12 10 11 11 11
23 23 26 27 26 25 24 21 18 16 12 12 15 8 12 16 20 23 25 24 21 20 20 20 19 17 17 19 22 20 18 20 13 13 20 23 19 16 17 17 15 12 12
25 24 23 23 23 20 26 24 20 18 14 16 14 5 7 12 15 20 22 22 21 20 20 20 19 17 16 16 20 16 13 12 8 8 10 12 19 25 20 19 18 16 14
27 28 26 27 26 24 22 22 20 18 14 15 13 5 4 7 12 18 20 20 20 20 20 20 19 18 17 13 13 12 7 1 9 15 12 14 16 21 21 20 19 18 17
33 29 25 25 26 26 23 23 23 19 17 16 14 7 3 2 9 15 19 21 19 20 21 20 20 20 18 13 8 5 1 6 14 14 14 14 16 21 21 20 19 18 18
40 33 28 27 27 27 24 22 20 20 17 17 15 11 11 6 9 14 16 22 20 18 18 19 19 19 17 14 11 7 8 11 12 13 14 15 16 19 21 20 21 21 20
42 35 34 36 35 31 27 27 25 23 20 19 18 17 15 9 7 12 11 20 25 23 24 21 20 19 17 15 13 10 9 9 11 12 14 14 14 14 16 18 20 20 19
44 47 43 35 36 37 33 28 24 26 26 22 20 23 18 11 11 6 6 14 20 23 26 26 21 21 19 16 15 13 11 12 10 10 11 12 13 14 14 14 14 21 25
44 46 46 42 41 40 38 34 32 28 28 26 26 23 26 18 19 15 7 7 11 16 16 22 23 19 21 19 19 19 19 18 16 14 13 12 11 12 13 13 14 16 12
37 39 42 40 39 46 47 40 37 40 37 32 29 26 31 27 29 15 16 8 7 2 6 7 11 15 16 16 17 18 17 16 16 15 14 13 13 12 14 15 15 16 18
38 37 37 38 40 43 56 51 40 37 37 36 31 30 30 32 28 29 21 13 4 6 7 3 3 3 5 8 9 16 16 19 20 18 16 13 12 13 14 15 16 17 18
32 32 32 34 38 45 50 53 48 42 41 40 36 32 34 35 37 36 20 13 9 8 9 7 9 6 7 9 12 18 19 20 20 21 22 16 14 14 15 16 17 19 19
30 29 29 30 33 40 49 50 50 50 42 33 34 35 47 41 43 31 19 13 15 18 10 9 6 7 8 12 14 11 10 14 20 25 24 21 20 21 19 20 21 21 20
33 31 31 32 35 40 47 50 51 50 44 43 33 34 40 40 24 18 24 21 18 10 10 12 9 5 6 3 11 14 15 18 23 25 25 25 26 28 29 30 27 25 27
35 33 33 34 36 41 47 49 49 49 48 44 37 32 29 26 26 26 25 19 15 14 14 12 7 4 12 17 21 23 23 20 22 20 20 20 21 24 28 31 32 30 30
36 34 32 31 33 40 45 50 52 49 48 44 42 38 35 30 29 27 24 20 20 20 17 9 10 16 19 20 21 18 15 14 14 12 12 15 20 24 33 38 39 39 40
38 34 30 30 37 47 50 50 52 52 47 47 43 38 35 32 28 22 24 22 21 19 17 19 19 20 21 19 17 16 13 9 10 11 9 12 25 35 41 43 45 45 44
38 35 33 32 41 48 51 61 61 53 51 50 45 39 32 29 28 30 29 27 23 25 29 25 20 19 23 14 8 12 9 6 10 17 11 20 32 44 43 45 48 48 49
45 40 37 38 47 55 61 60 59 57 56 52 47 42 37 34 34 33 31 32 32 26 23 19 15 13 14 17 13 6 4 1 18 7 18 24 40 45 48 51 50 53 53
47 41 44 46 52 54 59 61 62 59 59 56 51 45 42 41 41 40 37 33 28 22 17 14 14 12 13 14 14 17 14 13 11 13 22 38 44 47 53 55 55 58 60
51 51 50 51 54 61 61 66 64 63 58 55 52 53 51 51 47 42 35 29 23 19 15 14 14 13 14 15 18 17 18 20 26 29 38 58 60 60 64 61 68 66 65
55 56 56 59 61 65 63 65 61 60 57 58 60 60 61 58 50 41 33 25 20 16 14 14 15 16 19 21 22 22 25 29 35 38 49 60 65 65 66 69 64 69 69
Wind_Direction_500mb
183 171 160 152 141 134 131 128 123 111 101 85 84 71 61 63 57 54 55 57 60 62 67 75 78 75 95 89 83 83 85 74 66 69 66 69 74 70 71 71 72 68 66
184 164 163 159 151 145 137 136 129 122 117 102 90 66 64 50 46 43 43 44 50 60 67 73 83 87 100 95 92 84 75 77 69 54 60 76 84 77 70 70 70 65 65
174 166 163 162 158 154 147 141 136 130 130 114 93 79 54 44 48 43 39 40 45 50 54 58 73 89 102 106 106 95 79 68 59 52 38 77 89 92 78 64 64 68 65
168 170 168 165 163 162 158 153 147 146 134 124 111 87 48 51 49 42 43 45 53 53 51 54 64 84 99 113 117 115 92 67 58 36 38 63 53 79 79 63 41 36 42
164 174 171 168 170 171 169 165 162 159 150 143 140 98 46 50 46 42 39 42 50 51 51 54 63 74 92 112 123 123 91 71 60 22 38 44 42 62 52 40 24 16 10
166 174 174 172 171 177 177 172 170 168 165 167 155 112 52 48 45 43 41 46 51 51 50 51 56 69 90 116 125 122 108 93 59 18 53 47 34 36 43 39 31 20 8
169 166 172 179 178 173 174 179 178 177 172 168 173 144 60 54 47 43 44 46 49 52 55 58 64 74 89 108 129 138 135 104 85 50 30 18 29 32 32 23 20 13 10
166 172 186 198 193 187 188 188 191 189 184 184 180 181 82 63 46 42 45 45 49 53 57 58 61 69 79 97 127 158 185 342 348 26 37 19 3 8 19 18 17 13 11
171 183 197 195 197 199 199 196 195 199 194 188 194 200 183 106 50 43 51 51 53 57 60 64 66 66 71 82 103 145 224 347 358 4 9 9 1 4 12 8 11 10 9
179 184 190 181 200 199 200 203 201 205 202 201 203 202 195 231 75 60 58 61 54 57 59 58 59 64 71 75 71 44 16 3 0 3 6 9 5 3 0 2 2 4 5
198 185 187 193 200 204 204 203 204 208 215 208 199 202 223 170 127 83 59 63 57 53 52 56 56 62 66 71 75 70 51 35 22 10 5 1 1 1 359 1 1 0 2
201 203 206 198 201 205 203 212 209 211 213 214 211 206 212 200 182 146 94 53 52 61 51 50 57 57 60 64 65 63 51 43 31 17 7 0 354 348 349 356 359 29 6
209 210 213 215 209 204 201 201 211 212 217 211 209 217 206 198 198 166 184 78 46 60 57 34 46 53 51 51 48 42 31 22 15 3 355 349 346 343 340 338 340 337 360
218 218 218 215 211 210 204 201 205 213 211 209 212 218 217 204 193 197 186 176 166 22 141 19 45 51 40 35 20 7 356 354 352 345 337 339 342 338 333 338 334 332 334
228 225 220 215 210 208 203 206 204 212 212 213 214 214 212 197 230 196 188 180 208 273 253 232 297 101 10 329 341 329 333 332 344 352 344 341 339 340 344 344 343 340 338
218 219 220 219 215 211 207 204 207 212 215 219 214 205 222 217 214 195 186 202 204 244 247 306 296 268 328 329 326 341 341 346 3 7 6 358 356 355 1 353 346 340 337
213 214 214 216 215 210 207 202 203 209 200 209 210 214 202 221 214 222 204 215 241 270 228 292 213 228 288 312 327 351 23 28 21 25 43 52 54 47 43 30 18 9 359
221 224 226 226 222 213 206 197 202 208 212 208 211 208 207 200 208 238 247 250 244 223 223 209 214 265 296 60 94 82 66 61 61 61 64 63 63 58 49 40 30 21 16
227 230 234 235 223 215 204 194 202 206 206 206 206 205 200 215 218 224 228 215 222 204 194 193 216 167 124 116 105 100 95 84 80 75 68 62 52 39 30 19 13 7 2
228 230 232 233 221 202 200 196 197 200 202 198 193 195 204 206 207 203 211 203 199 195 197 185 145 131 126 122 118 115 102 81 74 65 49 35 22 7 360 353 349 349 348
226 225 226 225 207 192 191 190 193 191 191 183 181 183 190 205 190 189 176 179 188 193 170 153 144 133 130 133 132 120 117 93 29 6 356 355 350 352 346 343 342 343 341
225 218 214 207 191 188 194 195 191 185 178 179 176 180 178 184 185 183 176 176 173 166 152 145 133 129 120 141 165 170 179 252 314 310 320 333 341 340 341 346 344 343 339
216 212 204 196 191 193 191 193 190 184 175 175 171 173 175 179 177 177 171 164 156 152 147 135 118 109 97 94 92 126 139 191 329 256 294 317 330 340 344 344 344 341 337
210 202 192 194 191 188 189 188 188 187 180 175 174 173 177 174 170 164 162 158 155 150 137 117 90 68 55 48 34 32 28 16 356 311 316 324 334 339 344 344 342 338 336
206 198 191 193 192 193 193 196 191 191 182 175 176 172 172 165 164 162 161 158 153 139 122 102 86 67 54 48 44 39 20 7 357 347 333 333 334 342 343 342 342 336 334
200 195 193 193 195 194 196 191 194 192 188 185 178 174 170 166 164 162 160 154 142 127 107 85 61 50 44 37 35 26 15 10 2 357 343 338 336 335 335 335 336 332 332
Wind_Speed_850mb
24 22 23 24 25 24 23 22 20 16 16 17 20 20 24 26 26 28 27 25 23 23 21 20 19 22 23 25 25 25 25 23 22 23 24 22 21 22 24 26 24 24 22
17 29 25 25 24 23 24 22 19 18 16 14 15 18 22 23 25 26 24 22 20 19 19 18 18 19 24 26 27 24 22 22 19 23 18 15 20 22 24 22 22 23 21
23 29 27 27 24 22 21 20 18 17 14 14 12 15 18 20 21 20 23 21 20 19 19 18 16 18 21 26 27 25 22 22 19 20 20 9 13 15 14 15 17 19 20
24 28 26 26 25 23 21 18 17 14 12 12 11 12 17 21 20 23 24 21 19 19 18 17 14 15 18 21 24 21 19 21 18 16 20 17 10 8 9 8 8 9 9
22 29 27 27 26 24 23 20 18 13 10 10 11 9 13 18 22 25 25 22 21 19 19 17 16 16 18 19 21 19 17 17 19 19 13 17 15 14 12 10 11 11 11
23 23 26 27 26 25 24 21 18 16 12 12 15 8 12 16 20 23 25 24 21 20 20 20 19 17 17 19 22 20 18 20 13 13 20 23 19 16 17 17 15 12 12
25 24 23 23 23 20 26 24 20 18 14 16 14 5 7 12 15 20 22 22 21 20 20 20 19 17 16 16 20 16 13 12 8 8 10 12 19 25 20 19 18 16 14
27 28 26 27 26 24 22 22 20 18 14 15 13 5 4 7 12 18 20 20 20 20 20 20 19 18 17 13 13 12 7 1 9 15 12 14 16 21 21 20 19 18 17
33 29 25 25 26 26 23 23 23 19 17 16 14 7 3 2 9 15 19 21 19 20 21 20 20 20 18 13 8 5 1 6 14 14 14 14 16 21 21 20 19 18 18
40 33 28 27 27 27 24 22 20 20 17 17 15 11 11 6 9 14 16 22 20 18 18 19 19 19 17 14 11 7 8 11 12 13 14 15 16 19 21 20 21 21 20
42 35 34 36 35 31 27 27 25 23 20 19 18 17 15 9 7 12 11 20 25 23 24 21 20 19 17 15 13 10 9 9 11 12 14 14 14 14 16 18 20 20 19
44 47 43 35 36 37 33 28 24 26 26 22 20 23 18 11 11 6 6 14 20 23 26 26 21 21 19 16 15 13 11 12 10 10 11 12 13 14 14 14 14 21 25
44 46 46 42 41 40 38 34 32 28 28 26 26 23 26 18 19 15 7 7 11 16 16 22 23 19 21 19 19 19 19 18 16 14 13 12 11 12 13 13 14 16 12
37 39 42 40 39 46 47 40 37 40 37 32 29 26 31 27 29 15 16 8 7 2 6 7 11 15 16 16 17 18 17 16 16 15 14 13 13 12 14 15 15 16 18
38 37 37 38 40 43 56 51 40 37 37 36 31 30 30 32 28 29 21 13 4 6 7 3 3 3 5 8 9 16 16 19 20 18 16 13 12 13 14 15 16 17 18
32 32 32 34 38 45 50 53 48 42 41 40 36 32 34 35 37 36 20 13 9 8 9 7 9 6 7 9 12 18 19 20 20 21 22 16 14 14 15 16 17 19 19
30 29 29 30 33 40 49 50 50 50 42 33 34 35 47 41 43 31 19 13 15 18 10 9 6 7 8 12 14 11 10 14 20 25 24 21 20 21 19 20 21 21 20
33 31 31 32 35 40 47 50 51 50 44 43 33 34 40 40 24 18 24 21 18 10 10 12 9 5 6 3 11 14 15 18 23 25 25 25 26 28 29 30 27 25 27
35 33 33 34 36 41 47 49 49 49 48 44 37 32 29 26 26 26 25 19 15 14 14 12 7 4 12 17 21 23 23 20 22 20 20 20 21 24 28 31 32 30 30
36 34 32 31 33 40 45 50 52 49 48 44 42 38 35 30 29 27 24 20 20 20 17 9 10 16 19 20 21 18 15 14 14 12 12 15 20 24 33 38 39 39 40
38 34 30 30 37 47 50 50 52 52 47 47 43 38 35 32 28 22 24 22 21 19 17 19 19 20 21 19 17 16 13 9 10 11 9 12 25 35 41 43 45 45 44
38 35 33 32 41 48 51 61 61 53 51 50 45 39 32 29 28 30 29 27 23 25 29 25 20 19 23 14 8 12 9 6 10 17 11 20 32 44 43 45 48 48 49
45 40 37 38 47 55 61 60 59 57 56 52 47 42 37 34 34 33 31 32 32 26 23 19 15 13 14 17 13 6 4 1 18 7 18 24 40 45 48 51 50 53 53
47 41 44 46 52 54 59 61 62 59 59 56 51 45 42 41 41 40 37 33 28 22 17 14 14 12 13 14 14 17 14 13 11 13 22 38 44 47 53 55 55 58 60
51 51 50 51 54 61 61 66 64 63 58 55 52 53 51 51 47 42 35 29 23 19 15 14 14 13 14 15 18 17 18 20 26 29 38 58 60 60 64 61 68 66 65
55 56 56 59 61 65 63 65 61 60 57 58 60 60 61 58 50 41 33 25 20 16 14 14 15 16 19 21 22 22 25 29 35 38 49 60 65 65 66 69 64 69 69
Wind_Direction_850mb
183 171 160 152 141 134 131 128 123 111 101 85 84 71 61 63 57 54 55 57 60 62 67 75 78 75 95 89 83 83 85 74 66 69 66 69 74 70 71 71 72 68 66
184 164 163 159 151 145 137 136 129 122 117 102 90 66 64 50 46 43 43 44 50 60 67 73 83 87 100 95 92 84 75 77 69 54 60 76 84 77 70 70 70 65 65
174 166 163 162 158 154 147 141 136 130 130 114 93 79 54 44 48 43 39 40 45 50 54 58 73 89 102 106 106 95 79 68 59 52 38 77 89 92 78 64 64 68 65
168 170 168 165 163 162 158 153 147 146 134 124 111 87 48 51 49 42 43 45 53 53 51 54 64 84 99 113 117 115 92 67 58 36 38 63 53 79 79 63 41 36 42
164 174 171 168 170 171 169 165 162 159 150 143 140 98 46 50 46 42 39 42 50 51 51 54 63 74 92 112 123 123 91 71 60 22 38 44 42 62 52 40 24 16 10
166 174 174 172 171 177 177 172 170 168 165 167 155 112 52 48 45 43 41 46 51 51 50 51 56 69 90 116 125 122 108 93 59 18 53 47 34 36 43 39 31 20 8
169 166 172 179 178 173 174 179 178 177 172 168 173 144 60 54 47 43 44 46 49 52 55 58 64 74 89 108 129 138 135 104 85 50 30 18 29 32 32 23 20 13 10
166 172 186 198 193 187 188 188 191 189 184 184 180 181 82 63 46 42 45 45 49 53 57 58 61 69 79 97 127 158 185 342 348 26 37 19 3 8 19 18 17 13 11
171 183 197 195 197 199 199 196 195 199 194 188 194 200 183 106 50 43 51 51 53 57 60 64 66 66 71 82 103 145 224 347 358 4 9 9 1 4 12 8 11 10 9
179 184 190 181 200 199 200 203 201 205 202 201 203 202 195 231 75 60 58 61 54 57 59 58 59 64 71 75 71 44 16 3 0 3 6 9 5 3 0 2 2 4 5
198 185 187 193 200 204 204 203 204 208 215 208 199 202 223 170 127 83 59 63 57 53 52 56 56 62 66 71 75 70 51 35 22 10 5 1 1 1 359 1 1 0 2
201 203 206 198 201 205 203 212 209 211 213 214 211 206 212 200 182 146 94 53 52 61 51 50 57 57 60 64 65 63 51 43 31 17 7 0 354 348 349 356 359 29 6
209 210 213 215 209 204 201 201 211 212 217 211 209 217 206 198 198 166 184 78 46 60 57 34 46 53 51 51 48 42 31 22 15 3 355 349 346 343 340 338 340 337 360
218 218 218 215 211 210 204 201 205 213 211 209 212 218 217 204 193 197 186 176 166 22 141 19 45 51 40 35 20 7 356 354 352 345 337 339 342 338 333 338 334 332 334
228 225 220 215 210 208 203 206 204 212 212 213 214 214 212 197 230 196 188 180 208 273 253 232 297 101 10 329 341 329 333 332 344 352 344 341 339 340 344 344 343 340 338
218 219 220 219 215 211 207 204 207 212 215 219 214 205 222 217 214 195 186 202 204 244 247 306 296 268 328 329 326 341 341 346 3 7 6 358 356 355 1 353 346 340 337
213 214 214 216 215 210 207 202 203 209 200 209 210 214 202 221 214 222 204 215 241 270 228 292 213 228 288 312 327 351 23 28 21 25 43 52 54 47 43 30 18 9 359
221 224 226 226 222 213 206 197 202 208 212 208 211 208 207 200 208 238 247 250 244 223 223 209 214 265 296 60 94 82 66 61 61 61 64 63 63 58 49 40 30 21 16
227 230 234 235 223 215 204 194 202 206 206 206 206 205 200 215 218 224 228 215 222 204 194 193 216 167 124 116 105 100 95 84 80 75 68 62 52 39 30 19 13 7 2
228 230 232 233 221 202 200 196 197 200 202 198 193 195 204 206 207 203 211 203 199 195 197 185 145 131 126 122 118 115 102 81 74 65 49 35 22 7 360 353 349 349 348
226 225 226 225 207 192 191 190 193 191 191 183 181 183 190 205 190 189 176 179 188 193 170 153 144 133 130 133 132 120 117 93 29 6 356 355 350 352 346 343 342 343 341
225 218 214 207 191 188 194 195 191 185 178 179 176 180 178 184 185 183 176 176 173 166 152 145 133 129 120 141 165 170 179 252 314 310 320 333 341 340 341 346 344 343 339
216 212 204 196 191 193 191 193 190 184 175 175 171 173 175 179 177 177 171 164 156 152 147 135 118 109 97 94 92 126 139 191 329 256 294 317 330 340 344 344 344 341 337
210 202 192 194 191 188 189 188 188 187 180 175 174 173 177 174 170 164 162 158 155 150 137 117 90 68 55 48 34 32 28 16 356 311 316 324 334 339 344 344 342 338 336
206 198 191 193 192 193 193 196 191 191 182 175 176 172 172 165 164 162 161 158 153 139 122 102 86 67 54 48 44 39 20 7 357 347 333 333 334 342 343 342 342 336 334
200 195 193 193 195 194 196 191 194 192 188 185 178 174 170 166 164 162 160 154 142 127 107 85 61 50 44 37 35 26 15 10 2 357 343 338 336 335 335 335 336 332 332